Date String (YYYY-MM-DD hh:mm:ss) UTC,Instrument flags,absolute air pressure of the measurement (hPa),sample flow rate (lpm),inlet stack bypass flow (lpm),air temperature of the measurement (°C),ambient temperature measured by the external sensor (°C),aerosol sample conditioner tube jacket temperature (°C),OPC LED temperature (°C),internal box temperature (°C),relative humidity of the measurement (%),span deviation,mass concentration of particles derived from Lorenz-Mie calculation of OPC scattering (μg/m³),mass concentration of particles derived from Lorenz-Mie calculation of OPC scattering (μg/m³),mass concentration of particles derived from Lorenz-Mie calculation of OPC scattering (μg/m³)
DateTimeUTC,F1_M11,P_M11,Q1_M11,Q2_M11,T1_M11,T2_M11,T3_M11,T4_M11,T5_M11,U1_M11,ZSPAN_M11,X0_M11,X2_M11,X1_M11
2023-08-24 06:00:00,SystemResetWarning,0833.8,4.99,000.00,027.8,026.8,000.0,036.1,029.7,31.4,0000.5,0016.38,0008.12,0006.87
2023-08-24 06:01:00,SystemResetWarning,0833.8,4.98,000.00,027.9,025.9,000.0,036.0,029.5,31.3,0000.3,0016.11,0008.04,0006.85
2023-08-24 06:02:00,SystemResetWarning,0833.8,5.01,000.00,027.8,024.2,000.0,035.9,029.1,31.4,0000.5,0015.55,0007.99,0006.83
2023-08-24 06:03:00,SystemResetWarning,0833.8,5.01,000.00,027.6,023.5,000.0,035.8,028.9,31.8,0000.6,0016.10,0007.98,0006.81
2023-08-24 06:04:00,SystemResetWarning,0833.8,5.00,000.00,027.5,023.7,000.0,035.9,028.9,32.1,0000.5,0015.84,0007.99,0006.81
2023-08-24 06:05:00,SystemResetWarning,0833.7,5.00,000.00,027.5,024.1,000.0,035.9,028.9,32.4,0000.6,0015.65,0007.94,0006.80
2023-08-24 06:06:00,SystemResetWarning,0833.7,4.99,000.00,027.5,024.6,000.0,035.9,029.0,32.5,0000.3,0016.53,0007.93,0006.80
2023-08-24 06:07:00,SystemResetWarning,0833.8,5.00,000.00,027.5,025.0,000.0,036.0,029.2,32.6,0000.4,0016.80,0007.90,0006.79
2023-08-24 06:08:00,SystemResetWarning,0833.8,5.00,000.00,027.6,025.4,000.0,036.0,029.3,32.6,0000.0,0017.12,0007.94,0006.80
2023-08-24 06:09:00,SystemResetWarning,0833.8,5.01,000.00,027.6,025.7,000.0,036.0,029.3,32.5,0000.1,0016.88,0007.93,0006.80
2023-08-24 06:10:00,SystemResetWarning,0833.7,5.00,000.00,027.6,026.0,000.0,036.0,029.4,32.5,0000.1,0016.56,0007.92,0006.81
2023-08-24 06:11:00,SystemResetWarning,0833.8,4.99,000.00,027.7,026.3,000.0,036.0,029.5,32.6,0000.2,0016.81,0007.96,0006.83
2023-08-24 06:12:00,SystemResetWarning,0833.7,4.99,000.00,027.7,026.5,000.0,036.1,029.5,32.6,0000.5,0016.99,0008.02,0006.83
2023-08-24 06:13:00,SystemResetWarning,0833.7,5.00,000.00,027.8,026.7,000.0,036.1,029.6,32.5,0000.4,0017.23,0008.03,0006.85
2023-08-24 06:14:00,SystemResetWarning,0833.7,5.00,000.00,027.8,026.8,000.0,036.1,029.7,32.5,0000.4,0016.83,0008.02,0006.86
2023-08-24 06:15:00,SystemResetWarning,0833.7,4.99,000.00,027.9,026.6,000.0,036.1,029.7,32.4,0000.2,0016.52,0008.08,0006.86
2023-08-24 06:16:00,SystemResetWarning,0833.7,5.00,000.00,027.8,024.8,000.0,036.0,029.3,32.4,0000.6,0016.80,0008.16,0006.88
2023-08-24 06:17:00,SystemResetWarning,0833.7,5.00,000.00,027.7,023.6,000.0,035.9,029.0,32.6,0000.6,0016.41,0008.19,0006.88
2023-08-24 06:18:00,SystemResetWarning,0833.7,5.00,000.00,027.6,023.6,000.0,035.9,028.9,32.8,0000.4,0016.19,0008.21,0006.89
2023-08-24 06:19:00,SystemResetWarning,0833.7,5.02,000.00,027.5,023.9,000.0,035.9,028.9,33.0,0000.8,0015.75,0008.16,0006.89
2023-08-24 06:20:00,SystemResetWarning,0833.7,5.01,000.00,027.5,024.4,000.0,035.9,029.0,32.9,0000.8,0016.12,0008.17,0006.90
2023-08-24 06:21:00,SystemResetWarning,0833.7,4.99,000.00,027.5,024.8,000.0,036.0,029.1,32.6,0000.7,0018.44,0008.23,0006.90
2023-08-24 06:22:00,SystemResetWarning,0833.7,5.00,000.00,027.5,025.3,000.0,036.0,029.2,32.5,0000.8,0019.88,0008.23,0006.90
2023-08-24 06:23:00,SystemResetWarning,0833.7,5.00,000.00,027.6,025.6,000.0,036.0,029.3,32.6,0000.6,0019.79,0008.20,0006.91
2023-08-24 06:24:00,SystemResetWarning,0833.8,4.99,000.00,027.6,025.9,000.0,036.0,029.4,32.5,0000.3,0019.74,0008.24,0006.92
2023-08-24 06:25:00,SystemResetWarning,0833.8,5.00,000.00,027.7,026.2,000.0,036.1,029.4,32.3,0000.1,0020.47,0008.26,0006.95
2023-08-24 06:26:00,SystemResetWarning,0833.7,4.99,000.00,027.7,026.4,000.0,036.1,029.5,32.3,0000.2,0020.58,0008.25,0006.96
2023-08-24 06:27:00,SystemResetWarning,0833.7,5.01,000.00,027.8,026.6,000.0,036.1,029.6,32.3,0000.4,0020.30,0008.26,0006.99
2023-08-24 06:28:00,SystemResetWarning,0833.8,5.01,000.00,027.8,026.8,000.0,036.1,029.7,32.2,0000.8,0020.06,0008.26,0007.01
2023-08-24 06:29:00,SystemResetWarning,0833.7,4.99,000.00,027.9,026.8,000.0,036.1,029.7,32.0,0000.8,0020.75,0008.26,0007.02
2023-08-24 06:30:00,SystemResetWarning,0833.7,4.98,000.00,027.9,025.6,000.0,036.1,029.5,32.0,0000.6,0021.41,0008.29,0007.04
2023-08-24 06:31:00,SystemResetWarning,0833.7,5.00,000.00,027.8,024.0,000.0,036.0,029.1,32.1,0000.7,0021.47,0008.37,0007.06
2023-08-24 06:32:00,SystemResetWarning,0833.6,5.00,000.00,027.6,023.5,000.0,035.9,028.9,32.2,0001.1,0020.90,0008.40,0007.09
2023-08-24 06:33:00,SystemResetWarning,0833.7,5.01,000.00,027.5,023.8,000.0,035.9,028.9,32.3,0001.0,0019.83,0008.40,0007.11
2023-08-24 06:34:00,SystemResetWarning,0833.7,5.00,000.00,027.5,024.2,000.0,036.0,028.9,32.4,0001.0,0020.63,0008.47,0007.14
2023-08-24 06:35:00,SystemResetWarning,0833.7,5.00,000.00,027.5,024.6,000.0,036.0,029.1,32.4,0001.4,0020.76,0008.45,0007.17
2023-08-24 06:36:00,SystemResetWarning,0833.7,5.00,000.00,027.5,025.1,000.0,036.0,029.2,32.4,0001.7,0020.28,0008.47,0007.18
2023-08-24 06:37:00,SystemResetWarning,0833.7,5.00,000.00,027.6,025.5,000.0,036.0,029.3,32.4,0001.8,0020.04,0008.43,0007.18
2023-08-24 06:38:00,SystemResetWarning,0833.7,5.00,000.00,027.6,025.8,000.0,036.0,029.3,32.3,0001.5,0019.91,0008.40,0007.17
2023-08-24 06:39:00,SystemResetWarning,0833.7,5.00,000.00,027.7,026.1,000.0,036.1,029.4,32.2,0001.2,0019.91,0008.38,0007.17
2023-08-24 06:40:00,SystemResetWarning,0833.7,5.00,000.00,027.7,026.3,000.0,036.1,029.5,32.2,0001.6,0019.03,0008.33,0007.18
2023-08-24 06:41:00,SystemResetWarning,0833.7,5.00,000.00,027.7,026.5,000.0,036.1,029.5,32.1,0001.6,0018.48,0008.31,0007.19
2023-08-24 06:42:00,SystemResetWarning,0833.7,4.99,000.00,027.8,026.7,000.0,036.1,029.6,32.0,0001.8,0018.48,0008.30,0007.19
2023-08-24 06:43:00,SystemResetWarning,0833.7,4.99,000.00,027.8,026.8,000.0,036.2,029.7,31.8,0001.7,0017.60,0008.28,0007.17
2023-08-24 06:44:00,SystemResetWarning,0833.7,5.00,000.00,027.9,026.9,000.0,036.2,029.7,31.6,0001.9,0016.68,0008.28,0007.16
2023-08-24 06:45:00,SystemResetWarning,0833.7,4.99,000.00,027.9,026.4,000.0,036.2,029.7,31.5,0002.0,0015.70,0008.25,0007.14
2023-08-24 06:46:00,SystemResetWarning,0833.7,5.01,000.00,027.9,024.8,000.0,036.0,029.4,31.6,0002.1,0015.12,0008.22,0007.13
2023-08-24 06:47:00,SystemResetWarning,0833.7,5.02,000.00,027.8,024.4,000.0,036.0,029.2,31.5,0002.1,0015.23,0008.21,0007.12
2023-08-24 06:48:00,SystemResetWarning,0833.7,5.00,000.00,027.7,024.6,000.0,036.0,029.2,30.7,0002.1,0015.34,0008.21,0007.10
2023-08-24 06:49:00,SystemResetWarning,0833.6,5.00,000.00,027.7,024.9,000.0,036.1,029.2,30.6,0002.3,0015.53,0008.26,0007.11
2023-08-24 06:50:00,SystemResetWarning,0833.7,5.00,000.00,027.7,025.3,000.0,036.1,029.3,29.8,0002.4,0015.76,0008.28,0007.12
2023-08-24 06:51:00,SystemResetWarning,0833.7,4.99,000.00,027.7,025.7,000.0,036.1,029.4,29.7,0002.3,0015.81,0008.36,0007.11
2023-08-24 06:52:00,SystemResetWarning,0833.8,5.00,000.00,027.8,026.0,000.0,036.2,029.5,29.7,0002.2,0015.71,0008.36,0007.10
2023-08-24 06:53:00,SystemResetWarning,0833.8,5.00,000.00,027.8,026.2,000.0,036.2,029.6,29.7,0002.2,0015.69,0008.33,0007.09
2023-08-24 06:54:00,SystemResetWarning,0833.8,5.00,000.00,027.9,026.5,000.0,036.2,029.6,29.6,0002.2,0015.44,0008.26,0007.07
2023-08-24 06:55:00,SystemResetWarning,0833.8,5.00,000.00,027.9,026.7,000.0,036.2,029.7,29.9,0002.2,0014.99,0008.24,0007.07
2023-08-24 06:56:00,SystemResetWarning,0833.7,4.98,000.00,028.0,026.8,000.0,036.3,029.7,29.9,0002.0,0015.30,0008.21,0007.03
2023-08-24 06:57:00,SystemResetWarning,0833.8,5.00,000.00,028.0,026.7,000.0,036.3,029.8,30.1,0001.8,0015.42,0008.19,0007.00
2023-08-24 06:58:00,SystemResetWarning,0833.7,5.01,000.00,028.0,025.2,000.0,036.2,029.5,30.1,0001.5,0015.63,0008.22,0006.97
2023-08-24 06:59:00,SystemResetWarning,0833.6,5.01,000.00,027.9,024.5,000.0,036.1,029.3,30.3,0001.3,0015.01,0008.20,0006.94
